sat.trackr.live / text

‹ back to catalog

STARLINK-34180

NORAD 64081 · 2025-107T

PAYLOAD ACTIVE UNKNOWN

§ Identity

Operator
Country
US
Launch date
2025-05-21
Launch site
AFETR
Launch vehicle
Mass (kg)
RCS (m²)

Purposes: comms

External: N2YO · Heavens-Above · Gunter

§ Orbital elements

Epoch: 2026-09-20T04:14:59.172000Z

Period
94.27 min
Inclination
43.0055°
Eccentricity
0.0001875
Mean motion
15.27592539 rev/d
Perigee alt
481.7 km
Apogee alt
484.3 km
Semi-major
6,861.1 km
B*
4.2150e-4
RAAN
183.2817°
Arg perigee
255.0200°
Mean anomaly
105.0444°
Rev number
7,586

§ Raw data

STARLINK-341801 64081U 25107T   26263.17707375  .00011359  00000+0  42150-3 0  99932 64081  43.0055 183.2817 0001875 255.0200 105.0444 15.27592539 75865

JSON: /api/v1/satellites/64081 · /tle

For live sub-satellite position, see the globe view (requires WebGL).

§ Visibility from observer

Set your observer location to see the next 7 days of passes ≥ 10°. The values pass through the URL so the page stays shareable.

No JS? Fill the form by hand. The geolocation button needs JavaScript.